Weather History for KMAF - November, 2012

Change the Weather History Date:

Sunday, November 18, 2012

  Actual Average Record
Temperature  
Mean Temperature 60 °F 52 °F  
Max Temperature 67 °F 66 °F 84 °F (1999)
Min Temperature 53 °F 38 °F 19 °F (1980)
Degree Days  
Heating Degree Days 5 13  
Month to date heating degree days 125 180  
Since 1 July heating degree days 259 289  
Growing Degree Days 10 (Base 50)    
Moisture  
Dew Point 48 °F    
Average Humidity 67    
Maximum Humidity 77    
Minimum Humidity 56    
Precipitation  
Precipitation T in 0.02 in 0.60 in (1944)
Month to date precipitation T 0.44  
Year to date precipitation 12.72 13.75  
Snow  
Snow 0.00 in - - ()
Month to date snowfall 0.0  
Since 1 July snowfall 0.0  
Since 1 September snowfall 0.0  
Snow Depth 0.00 in    
Sea Level Pressure  
Sea Level Pressure 30.07 in    
Wind  
Wind Speed 9 mph (South)    
Max Wind Speed 16 mph    
Max Gust Speed 21 mph    
Visibility 10 miles    
Events Rain    
T = Trace of Precipitation, MM = Missing Value Source: NWS Daily Summary

Daily Weather History Graph

Daily Weather History Graph

Search for Another Location

Airport or City:

Trip Planner

Search our weather history database for the weather conditions in past years. The results will help you decide how hot, cold, wet, or windy it might be!

Date:

Astronomy

Nov. 18, 2012 Rise Set
Actual Time 7:20 AM CST 5:47 PM CST
Civil Twilight 6:54 AM CST 6:13 PM CST
Nautical Twilight 6:24 AM CST 6:43 PM CST
Astronomical Twilight 5:55 AM CST 7:12 PM CST
Moon 11:52 AM CST (11/18) 11:04 PM CST (11/18)
Length of Visible Light 11h 19m
Length of Day
10h 26m
Waxing Crescent, 30% of the Moon is Illuminated
Nov 18
Waxing Crescent
Nov 20
First Quarter
Nov 28
Full
Dec 6
Last Quarter
Dec 13
New

Hourly Weather History & Observations

Time (CST) Temp. Dew Point Humidity Pressure Visibility Wind Dir Wind Speed Gust Speed Precip Events Conditions
12:53 AM 55.9 °F 43.0 °F 62% 30.08 in 10.0 mi South 12.7 mph - N/A   Clear
1:53 AM 55.0 °F 42.1 °F 62% 30.06 in 10.0 mi South 13.8 mph - N/A   Clear
2:53 AM 54.0 °F 43.0 °F 66% 30.05 in 10.0 mi South 10.4 mph - N/A   Mostly Cloudy
3:53 AM 54.0 °F 43.0 °F 66% 30.04 in 10.0 mi South 8.1 mph - N/A   Clear
4:53 AM 54.0 °F 44.1 °F 69% 30.04 in 10.0 mi South 11.5 mph - N/A   Clear
5:53 AM 54.0 °F 44.1 °F 69% 30.04 in 10.0 mi South 11.5 mph - N/A   Clear
6:53 AM 54.0 °F 45.0 °F 72% 30.05 in 10.0 mi South 9.2 mph - N/A   Clear
7:53 AM 54.0 °F 45.0 °F 72% 30.07 in 10.0 mi South 13.8 mph - N/A   Clear
8:53 AM 57.0 °F 46.0 °F 67% 30.05 in 10.0 mi SSE 11.5 mph - N/A   Scattered Clouds
9:53 AM 57.0 °F 48.0 °F 72% 30.10 in 10.0 mi South 11.5 mph - 0.00 in Rain Light Rain
10:53 AM 59.0 °F 50.0 °F 72% 30.09 in 10.0 mi South 10.4 mph - 0.00 in   Mostly Cloudy
11:53 AM 61.0 °F 50.0 °F 67% 30.09 in 10.0 mi South 11.5 mph - 0.00 in   Overcast
12:53 PM 64.0 °F 50.0 °F 60% 30.06 in 10.0 mi South 10.4 mph - N/A   Mostly Cloudy
1:53 PM 64.9 °F 50.0 °F 58% 30.05 in 10.0 mi SW 5.8 mph - N/A   Overcast
2:53 PM 66.0 °F 50.0 °F 56% 30.05 in 10.0 mi Calm Calm - N/A   Overcast
3:53 PM 66.0 °F 50.0 °F 56% 30.06 in 10.0 mi Variable 3.5 mph - N/A   Mostly Cloudy
4:53 PM 66.0 °F 50.0 °F 56% 30.07 in 10.0 mi SSE 4.6 mph - N/A   Clear
5:53 PM 62.1 °F 50.0 °F 65% 30.07 in 10.0 mi SSE 8.1 mph - N/A   Clear
6:53 PM 61.0 °F 48.9 °F 64% 30.09 in 10.0 mi South 6.9 mph - N/A   Overcast
7:53 PM 60.1 °F 48.9 °F 67% 30.11 in 10.0 mi South 12.7 mph - N/A   Mostly Cloudy
8:53 PM 57.9 °F 50.0 °F 75% 30.10 in 10.0 mi South 11.5 mph - N/A   Clear
9:53 PM 57.9 °F 50.0 °F 75% 30.10 in 10.0 mi South 12.7 mph - N/A   Clear
10:53 PM 57.0 °F 50.0 °F 77% 30.10 in 10.0 mi South 9.2 mph - N/A   Clear
11:53 PM 55.0 °F 50.0 °F 83% 30.10 in 10.0 mi SSW 4.6 mph - N/A   Clear